This is the latest recevied weather packets stored in our database for station/object SR8WXE. If no packets are shown the sender has not sent any weather packets the latest 1 day(s).
| Time | Temp. | Humidity | Pressure | Rain* | Wind** | Luminosity | Snow |
|---|---|---|---|---|---|---|---|
| 1777997751 | 23.33° C | 17% | 1007.9 hPa | 0 mm | 0.89 m/s, 201° | - | - |
| 1777997451 | 23.33° C | 17% | 1007.9 hPa | 0 mm | 1.34 m/s, 180° | - | - |
| 1777997150 | 23.33° C | 17% | 1007.9 hPa | 0 mm | 4.02 m/s, 217° | - | - |
| 1777996850 | 23.89° C | 17% | 1007.9 hPa | 0 mm | 1.79 m/s, 247° | - | - |
| 1777996550 | 23.89° C | 16% | 1007.9 hPa | 0 mm | 2.68 m/s, 236° | - | - |
| 1777996249 | 23.89° C | 16% | 1007.9 hPa | 0 mm | 3.58 m/s, 182° | - | - |
| 1777995949 | 23.89° C | 16% | 1007.9 hPa | 0 mm | 2.24 m/s, 147° | - | - |
| 1777995649 | 24.44° C | 16% | 1007.9 hPa | 0 mm | 3.13 m/s, 229° | - | - |
| 1777995349 | 24.44° C | 14% | 1008 hPa | 0 mm | 1.34 m/s, 192° | - | - |
| 1777995048 | 23.89° C | 15% | 1008 hPa | 0 mm | 4.02 m/s, 198° | - | - |
| 1777994748 | 23.89° C | 15% | 1008 hPa | 0 mm | 1.79 m/s, 213° | - | - |
| 1777994448 | 23.89° C | 15% | 1008.1 hPa | 0 mm | 2.68 m/s, 234° | - | - |
| 1777994147 | 23.89° C | 15% | 1008 hPa | 0 mm | 4.02 m/s, 123° | - | - |
| 1777993847 | 23.89° C | 15% | 1008.1 hPa | 0 mm | 3.58 m/s, 220° | - | - |
| 1777993547 | 23.89° C | 15% | 1008.1 hPa | 0 mm | 2.68 m/s, 153° | - | - |
| 1777993247 | 23.89° C | 15% | 1008.1 hPa | 0 mm | 1.79 m/s, 198° | - | - |
| 1777992946 | 24.44° C | 14% | 1008.2 hPa | 0 mm | 1.79 m/s, 192° | - | - |
| 1777992646 | 24.44° C | 14% | 1008.2 hPa | 0 mm | 1.34 m/s, 187° | - | - |
| 1777992346 | 24.44° C | 15% | 1008.3 hPa | 0 mm | 5.81 m/s, 243° | - | - |
| 1777992046 | 24.44° C | 14% | 1008.3 hPa | 0 mm | 4.02 m/s, 215° | - | - |
| 1777991745 | 24.44° C | 14% | 1008.3 hPa | 0 mm | 2.68 m/s, 194° | - | - |
| 1777991445 | 25° C | 14% | 1008.4 hPa | 0 mm | 2.24 m/s, 149° | - | - |
| 1777991145 | 25° C | 16% | 1008.5 hPa | 0 mm | 1.34 m/s, 236° | - | - |
| 1777990844 | 25° C | 15% | 1008.6 hPa | 0 mm | 1.79 m/s, 225° | - | - |
| 1777990544 | 25° C | 16% | 1008.6 hPa | 0 mm | 2.68 m/s, 219° | - | - |
* Rain latest hour (hover to see other rain measurements)
** Current wind speed in m/s (hover to see current wind gust speed)